Location: Bismarck
(46.7731°N, 100.8200°W)
Time: 21:24:58
(UTC-05:00)

ISS - Visible Passes

Search period start: 24 September 2017 00:00
Search period end: 04 October 2017 00:00
Orbit: 401 x 407 km, 51.6° (Epoch: 25 September)

Date Brightness Start Highest point End Pass type
(mag) Time Alt. Az. Time Alt. Az. Time Alt. Az.
24 Sep -1.5 21:19:04 10° SSW 21:19:45 14° S 21:19:45 14° S visible
25 Sep -1.9 20:27:45 10° S 20:29:40 15° SE 20:30:16 14° ESE visible
25 Sep -1.0 22:02:25 10° WSW 22:02:57 14° WSW 22:02:57 14° WSW visible
26 Sep -3.6 21:10:12 10° SW 21:13:13 50° SSE 21:13:13 50° SSE visible
27 Sep -2.8 20:18:13 10° SSW 20:21:06 30° SE 20:23:19 15° E visible
27 Sep -1.8 21:54:13 10° W 21:55:59 28° W 21:55:59 28° W visible
28 Sep -3.9 21:01:45 10° WSW 21:05:01 84° NNW 21:05:55 45° ENE visible
29 Sep -3.7 20:09:25 10° SW 20:12:38 60° SSE 20:15:44 11° ENE visible
29 Sep -2.1 21:46:06 10° W 21:48:23 32° NW 21:48:23 32° NW visible
30 Sep -3.2 20:53:30 10° W 20:56:42 51° NNW 20:58:06 29° NE visible
30 Sep -0.3 22:30:35 10° WNW 22:30:44 11° WNW 22:30:44 11° WNW visible
01 Oct -3.7 20:00:58 10° WSW 20:04:14 73° NNW 20:07:30 10° ENE visible
01 Oct -2.1 21:37:59 10° WNW 21:40:22 30° NNW 21:40:22 30° NNW visible
02 Oct -2.7 20:45:21 10° W 20:48:26 37° N 20:49:57 23° NE visible
02 Oct -0.3 22:22:16 10° WNW 22:22:35 12° WNW 22:22:35 12° WNW visible
03 Oct -3.0 19:52:42 10° W 19:55:52 46° NNW 19:59:03 10° ENE visible
03 Oct -2.2 21:29:44 10° WNW 21:32:07 30° NNW 21:32:07 30° NNW visible
